Pompano Beach, FL

9:56 PM EDT on June 27, 2017 (GMT -0400)
Pompano Beach

Weather History for KPMP - September, 2013

Change the Weather History Date:

Sunday, September 29, 2013

  Actual Average Record
Temperature  
Mean Temperature 42 °F -  
Max Temperature 86 °F 90 °F 95 °F (1980)
Min Temperature 0 °F 73 °F 0 °F (2013)
Degree Days  
Heating Degree Days 23    
Moisture  
Dew Point 66 °F    
Average Humidity 69    
Maximum Humidity 100    
Minimum Humidity 55    
Precipitation  
Precipitation 0.00 in - - ()
Sea Level Pressure  
Sea Level Pressure 29.94 in    
Wind  
Wind Speed 5 mph (ENE)    
Max Wind Speed 12 mph    
Max Gust Speed -    
Visibility 10 miles    
Events      
Averages and records for this station are not official NWS values.
T = Trace of Precipitation, MM = Missing Value Source: NWS Daily Summary

Daily Weather History Graph

Daily Weather History Graph

Search for Another Location

Airport or City:

Trip Planner

Search our weather history database for the weather conditions in past years. The results will help you decide how hot, cold, wet, or windy it might be!

Date:

Astronomy

Sep. 29, 2013 Rise Set
Actual Time 7:12 AM EDT 7:08 PM EDT
Civil Twilight 6:49 AM EDT 7:31 PM EDT
Nautical Twilight 6:22 AM EDT 7:58 PM EDT
Astronomical Twilight 5:55 AM EDT 8:25 PM EDT
Moon 2:17 AM EDT (9/29) 3:40 PM EDT (9/29)
Length of Visible Light 12h 42m
Length of Day
11h 56m
Waning Crescent, 27% of the Moon is Illuminated
Sep 29
Waning Crescent
Oct 4
New
Oct 11
First Quarter
Oct 18
Full
Oct 26
Last Quarter

Hourly Weather History & Observations

Time (EDT) Temp. Windchill Dew Point Humidity Pressure Visibility Wind Dir Wind Speed Gust Speed Precip Events Conditions
12:53 AM 75.9 °F - 72.0 °F 87% 29.96 in 10.0 mi Calm Calm - N/A   Unknown
1:53 AM 80.1 °F - 68.0 °F 67% 29.94 in 10.0 mi East 9.2 mph - N/A   Unknown
2:53 AM -0.0 °F -13.0 °F -0.0 °F 100% 29.92 in 10.0 mi ENE 6.9 mph - N/A   Unknown
3:53 AM 79.0 °F - 69.1 °F 72% 29.92 in 10.0 mi ENE 5.8 mph - N/A   Unknown
4:53 AM 79.0 °F - 68.0 °F 69% 29.92 in 10.0 mi ENE 4.6 mph - N/A   Unknown
5:53 AM 79.0 °F - 68.0 °F 69% 29.93 in 10.0 mi Calm Calm - N/A   Unknown
6:53 AM 75.0 °F - 72.0 °F 90% 29.94 in 10.0 mi WNW 3.5 mph - N/A   Unknown
7:53 AM 75.0 °F - 72.0 °F 90% 29.96 in 10.0 mi Calm Calm - N/A   Scattered Clouds
8:53 AM 82.0 °F - 71.1 °F 69% 29.97 in 10.0 mi Calm Calm - N/A   Scattered Clouds
9:53 AM 82.9 °F - 69.1 °F 63% 29.98 in 10.0 mi East 9.2 mph - N/A   Scattered Clouds
10:53 AM 84.0 °F - 69.1 °F 61% 29.99 in 10.0 mi ENE 8.1 mph - N/A   Scattered Clouds
11:53 AM 84.9 °F - 69.1 °F 59% 29.98 in 10.0 mi East 8.1 mph - N/A   Scattered Clouds
12:53 PM 84.9 °F - 66.9 °F 55% 29.96 in 10.0 mi ENE 8.1 mph - N/A   Scattered Clouds
1:53 PM 84.9 °F - 68.0 °F 57% 29.94 in 10.0 mi East 6.9 mph - N/A   Scattered Clouds
2:53 PM 84.9 °F - 69.1 °F 59% 29.92 in 10.0 mi East 5.8 mph - N/A   Scattered Clouds
3:53 PM 84.9 °F - 69.1 °F 59% 29.90 in 10.0 mi East 9.2 mph - N/A   Unknown
4:53 PM 84.0 °F - 69.1 °F 61% 29.90 in 10.0 mi East 10.4 mph - N/A   Unknown
5:53 PM 82.9 °F - 69.1 °F 63% 29.91 in 10.0 mi East 11.5 mph - N/A   Scattered Clouds
6:53 PM 82.0 °F - 69.1 °F 65% 29.92 in 10.0 mi ENE 8.1 mph - N/A   Unknown
7:53 PM 81.0 °F - 68.0 °F 65% 29.94 in 10.0 mi ENE 6.9 mph - N/A   Unknown
8:53 PM 81.0 °F - 69.1 °F 67% 29.95 in 10.0 mi East 8.1 mph - N/A   Unknown
9:53 PM 81.0 °F - 68.0 °F 65% 29.96 in 10.0 mi ENE 8.1 mph - N/A   Unknown
10:53 PM 80.1 °F - 68.0 °F 67% 29.97 in 10.0 mi ENE 5.8 mph - N/A   Unknown
11:53 PM 80.1 °F - 68.0 °F 67% 29.96 in 10.0 mi ENE 8.1 mph - N/A   Unknown